Weather History for Clarinda, IA

Change the Weather History Date:

Friday, February 21, 2014

  Actual Average Record
Temperature  
Mean Temperature 34 °F -  
Max Temperature 46 °F 39 °F 71 °F (2000)
Min Temperature 23 °F 23 °F 6 °F (2008)
Degree Days  
Heating Degree Days 30    
Moisture  
Dew Point 23 °F    
Average Humidity 71    
Maximum Humidity 93    
Minimum Humidity 53    
Precipitation  
Precipitation 0.00 in - - ()
Sea Level Pressure  
Sea Level Pressure 29.83 in    
Wind  
Wind Speed 11 mph (WSW)    
Max Wind Speed 22 mph    
Max Gust Speed 31 mph    
Visibility 10 miles    
Events      
Averages and records for this station are not official NWS values.
T = Trace of Precipitation, MM = Missing Value Source: NWS Daily Summary

Daily Weather History Graph

Daily Weather History Graph

Search for Another Location

Airport:

Trip Planner

Search our weather history database for the weather conditions in past years. The results will help you decide how hot, cold, wet, or windy it might be!

Date:

Astronomy

Feb. 21, 2014 Rise Set
Actual Time 7:05 AM CST 6:02 PM CST
Civil Twilight 6:38 AM CST 6:29 PM CST
Nautical Twilight 6:06 AM CST 7:01 PM CST
Astronomical Twilight 5:34 AM CST 7:33 PM CST
Moon No Moon Rise 10:28 AM CST (2/21)
Length of Visible Light 11h 51m
Length of Day
10h 56m
Waning Gibbous, 60% of the Moon is Illuminated
Feb 21
Waning Gibbous
Feb 22
Last Quarter
Mar 1
New
Mar 8
First Quarter
Mar 16
Full

Hourly Weather History & Observations

Time (CST) Temp. Windchill Dew Point Humidity Pressure Visibility Wind Dir Wind Speed Gust Speed Precip Events Conditions
12:15 AM 26.6 °F 12.4 °F 17.6 °F 69% 29.75 in 10.0 mi WNW 21.9 mph 29.9 mph N/A   Mostly Cloudy
12:35 AM 26.6 °F 12.4 °F 17.6 °F 69% 29.75 in 10.0 mi WNW 21.9 mph 31.1 mph N/A   Clear
12:55 AM 26.6 °F 14.3 °F 17.6 °F 69% 29.76 in 10.0 mi West 16.1 mph 25.3 mph N/A   Clear
1:15 AM 26.6 °F 13.4 °F 17.6 °F 69% 29.77 in 10.0 mi WNW 18.4 mph 25.3 mph N/A   Clear
1:35 AM 26.6 °F 16.2 °F 17.6 °F 69% 29.78 in 10.0 mi WNW 11.5 mph 23.0 mph N/A   Clear
1:55 AM 24.8 °F 13.4 °F 17.6 °F 74% 29.78 in 10.0 mi West 12.7 mph - N/A   Clear
2:15 AM 26.6 °F 14.3 °F 17.6 °F 69% 29.79 in 10.0 mi West 16.1 mph 23.0 mph N/A   Clear
2:35 AM 24.8 °F 11.9 °F 17.6 °F 74% 29.79 in 10.0 mi West 16.1 mph - N/A   Clear
2:55 AM 24.8 °F 12.9 °F 17.6 °F 74% 29.79 in 10.0 mi WNW 13.8 mph - N/A   Clear
3:15 AM 24.8 °F 13.4 °F 17.6 °F 74% 29.80 in 10.0 mi West 12.7 mph - N/A   Clear
3:35 AM 24.8 °F 12.4 °F 17.6 °F 74% 29.81 in 10.0 mi West 15.0 mph 20.7 mph N/A   Clear
3:55 AM 24.8 °F 12.9 °F 15.8 °F 69% 29.81 in 10.0 mi West 13.8 mph 19.6 mph N/A   Clear
4:15 AM 24.8 °F 14.0 °F 15.8 °F 69% 29.80 in 10.0 mi WNW 11.5 mph 18.4 mph N/A   Clear
4:35 AM 24.8 °F 15.3 °F 15.8 °F 69% 29.80 in 10.0 mi WNW 9.2 mph - N/A   Clear
4:55 AM 23.0 °F 10.6 °F 15.8 °F 74% 29.85 in 10.0 mi WSW 13.8 mph - N/A   Clear
5:15 AM 24.8 °F 14.0 °F 15.8 °F 69% 29.85 in 10.0 mi West 11.5 mph 18.4 mph N/A   Clear
5:35 AM 24.8 °F 14.0 °F 15.8 °F 69% 29.85 in 10.0 mi West 11.5 mph - N/A   Clear
5:55 AM 24.8 °F 13.4 °F 15.8 °F 69% 29.85 in 10.0 mi West 12.7 mph - N/A   Clear
6:15 AM 24.8 °F 13.4 °F 15.8 °F 69% 29.85 in 10.0 mi West 12.7 mph - N/A   Clear
6:35 AM 24.8 °F 13.4 °F 15.8 °F 69% 29.85 in 10.0 mi West 12.7 mph - N/A   Clear
6:55 AM 24.8 °F 14.6 °F 15.8 °F 69% 29.86 in 10.0 mi West 10.4 mph - N/A   Clear
7:15 AM 24.8 °F 14.6 °F 15.8 °F 69% 29.86 in 10.0 mi WSW 10.4 mph - N/A   Clear
7:35 AM 24.8 °F 15.3 °F 15.8 °F 69% 29.86 in 10.0 mi West 9.2 mph - N/A   Clear
7:55 AM 24.8 °F 14.6 °F 17.6 °F 74% 29.87 in 10.0 mi West 10.4 mph - N/A   Clear
8:15 AM 26.6 °F 18.2 °F 17.6 °F 69% 29.86 in 10.0 mi West 8.1 mph - N/A   Clear
8:35 AM 28.4 °F 23.3 °F 19.4 °F 69% 29.86 in 10.0 mi SW 4.6 mph - N/A   Clear
8:55 AM 28.4 °F 23.3 °F 19.4 °F 69% 29.85 in 10.0 mi South 4.6 mph - N/A   Clear
9:15 AM 28.4 °F 21.2 °F 19.4 °F 69% 29.85 in 10.0 mi South 6.9 mph - N/A   Clear
9:35 AM 30.2 °F 25.4 °F 19.4 °F 64% 29.85 in 10.0 mi SW 4.6 mph - N/A   Clear
9:55 AM 32.0 °F 27.5 °F 19.4 °F 60% 29.84 in 10.0 mi SW 4.6 mph - N/A   Clear
10:15 AM 32.0 °F 27.5 °F 19.4 °F 60% 29.85 in 10.0 mi SSW 4.6 mph - N/A   Clear
10:35 AM 33.8 °F 28.6 °F 19.4 °F 56% 29.84 in 10.0 mi SSW 5.8 mph - N/A   Clear
10:55 AM 33.8 °F 29.6 °F 21.2 °F 60% 29.83 in 10.0 mi SSW 4.6 mph - N/A   Clear
11:15 AM 33.8 °F 28.6 °F 23.0 °F 65% 29.82 in 10.0 mi South 5.8 mph - N/A   Clear
11:35 AM 35.6 °F 29.9 °F 23.0 °F 60% 29.81 in 10.0 mi SSE 6.9 mph - N/A   Clear
11:55 AM 35.6 °F 27.5 °F 24.8 °F 65% 29.80 in 10.0 mi South 11.5 mph - N/A   Clear
12:15 PM 37.4 °F 31.4 °F 24.8 °F 60% 29.80 in 10.0 mi South 8.1 mph - N/A   Clear
12:35 PM 37.4 °F 29.8 °F 26.6 °F 65% 29.80 in 10.0 mi SSW 11.5 mph - N/A   Clear
12:55 PM 37.4 °F 29.8 °F 26.6 °F 65% 29.80 in 10.0 mi SSW 11.5 mph - N/A   Clear
1:15 PM 39.2 °F 32.5 °F 26.6 °F 61% 29.79 in 10.0 mi SW 10.4 mph - N/A   Clear
1:35 PM 39.2 °F 32.0 °F 28.4 °F 65% 29.78 in 10.0 mi SW 11.5 mph - N/A   Clear
1:55 PM 39.2 °F 33.0 °F 28.4 °F 65% 29.78 in 10.0 mi SW 9.2 mph - N/A   Clear
2:15 PM 39.2 °F 33.6 °F 28.4 °F 65% 29.78 in 10.0 mi SW 8.1 mph - N/A   Clear
2:35 PM 41.0 °F 36.4 °F 30.2 °F 65% 29.79 in 10.0 mi SW 6.9 mph - N/A   Clear
2:55 PM 42.8 °F 37.5 °F 30.2 °F 61% 29.79 in 10.0 mi SW 9.2 mph - N/A   Clear
3:15 PM 42.8 °F 38.0 °F 32.0 °F 66% 29.80 in 10.0 mi SW 8.1 mph - N/A   Clear
3:35 PM 44.6 °F 41.4 °F 30.2 °F 57% 29.80 in 10.0 mi WSW 5.8 mph - N/A   Clear
3:55 PM 44.6 °F 42.2 °F 30.2 °F 57% 29.81 in 10.0 mi West 4.6 mph - N/A   Clear
4:15 PM 46.4 °F 42.9 °F 30.2 °F 53% 29.80 in 10.0 mi West 6.9 mph - N/A   Clear
4:35 PM 44.6 °F 40.7 °F 30.2 °F 57% 29.81 in 10.0 mi West 6.9 mph - N/A   Clear
4:55 PM 46.4 °F 45.2 °F 30.2 °F 53% 29.81 in 10.0 mi WSW 3.5 mph - N/A   Clear
5:15 PM 44.6 °F 42.2 °F 28.4 °F 53% 29.82 in 10.0 mi West 4.6 mph - N/A   Scattered Clouds
5:35 PM 44.6 °F 40.2 °F 30.2 °F 57% 29.83 in 10.0 mi NNW 8.1 mph - N/A   Mostly Cloudy
5:55 PM 42.8 °F 37.0 °F 28.4 °F 57% 29.84 in 10.0 mi North 10.4 mph - N/A   Partly Cloudy
6:15 PM 39.2 °F 37.0 °F 30.2 °F 70% 29.85 in 10.0 mi NW 3.5 mph 11.5 mph N/A   Mostly Cloudy
6:35 PM 37.4 °F 33.8 °F 30.2 °F 75% 29.85 in 10.0 mi SW 4.6 mph - N/A   Overcast
6:55 PM 33.8 °F 30.8 °F 30.2 °F 87% 29.86 in 10.0 mi South 3.5 mph - N/A   Mostly Cloudy
7:15 PM 35.6 °F - 30.2 °F 81% 29.86 in 10.0 mi Calm Calm - N/A   Clear
7:35 PM 32.0 °F - 28.4 °F 87% 29.87 in 10.0 mi Calm Calm - N/A   Clear
7:55 PM 32.0 °F 28.7 °F 28.4 °F 87% 29.86 in 10.0 mi South 3.5 mph - N/A   Clear
8:15 PM 30.2 °F 24.3 °F 28.4 °F 93% 29.87 in 10.0 mi SSW 5.8 mph - N/A   Scattered Clouds
8:35 PM 32.0 °F - 28.4 °F 87% 29.87 in 10.0 mi Calm Calm - N/A   Partly Cloudy
8:55 PM 30.2 °F - 28.4 °F 93% 29.88 in 10.0 mi Calm Calm - N/A   Clear
9:15 PM 30.2 °F - 28.4 °F 93% 29.89 in 10.0 mi Calm Calm - N/A   Clear
9:35 PM 32.0 °F - 28.4 °F 87% 29.88 in 10.0 mi Calm Calm - N/A   Clear
9:55 PM 30.2 °F 25.4 °F 28.4 °F 93% 29.89 in 10.0 mi SW 4.6 mph - N/A   Clear
10:15 PM 30.2 °F - 28.4 °F 93% 29.89 in 10.0 mi Calm Calm - N/A   Clear
10:35 PM 32.0 °F - 28.4 °F 87% 29.90 in 10.0 mi Calm Calm - N/A   Clear
10:55 PM 32.0 °F 27.5 °F 28.4 °F 87% 29.90 in 10.0 mi South 4.6 mph - N/A   Clear
11:15 PM 32.0 °F - 26.6 °F 80% 29.90 in 10.0 mi Calm Calm - N/A   Clear
11:35 PM 32.0 °F - 28.4 °F 87% 29.89 in 10.0 mi Calm Calm - N/A   Clear
11:55 PM 30.2 °F - 28.4 °F 93% 29.90 in 10.0 mi Calm Calm - N/A   Clear